TimeCST,TemperatureF,Dew PointF,Humidity,Sea Level PressureIn,VisibilityMPH,Wind Direction,Wind SpeedMPH,Gust SpeedMPH,PrecipitationIn,Events,Conditions,WindDirDegrees,DateUTC
12:13 AM,33.8,24.8,70,29.93,10.0,West,12.7,-,N/A,,Clear,270,2012-12-04 06:13:00
12:33 AM,32.0,24.8,75,29.94,10.0,West,16.1,23.0,N/A,,Clear,280,2012-12-04 06:33:00
12:54 AM,30.2,24.8,80,29.94,10.0,WNW,12.7,-,N/A,,Clear,290,2012-12-04 06:54:00
1:13 AM,28.4,24.8,86,29.95,10.0,West,16.1,-,N/A,,Clear,280,2012-12-04 07:13:00
1:33 AM,28.4,21.2,74,29.95,10.0,WNW,12.7,-,N/A,,Clear,290,2012-12-04 07:33:00
1:54 AM,26.6,21.2,80,29.97,10.0,WNW,12.7,17.3,N/A,,Clear,300,2012-12-04 07:54:00
2:13 AM,26.6,21.2,80,29.97,10.0,WNW,8.1,-,N/A,,Clear,290,2012-12-04 08:13:00
2:33 AM,26.6,19.4,74,29.99,10.0,West,10.4,-,N/A,,Clear,270,2012-12-04 08:33:00
2:54 AM,26.6,17.6,69,29.99,10.0,West,12.7,-,N/A,,Clear,280,2012-12-04 08:54:00
3:13 AM,26.6,17.6,69,29.99,10.0,West,13.8,21.9,N/A,,Clear,280,2012-12-04 09:13:00
3:33 AM,24.8,15.8,69,30.00,10.0,West,13.8,21.9,N/A,,Clear,280,2012-12-04 09:33:00
3:54 AM,24.8,15.8,69,30.01,10.0,West,16.1,21.9,N/A,,Clear,280,2012-12-04 09:54:00
4:13 AM,23.0,15.8,74,30.01,10.0,West,15.0,20.7,N/A,,Clear,280,2012-12-04 10:13:00
4:33 AM,23.0,15.8,74,30.02,10.0,West,12.7,-,N/A,,Clear,280,2012-12-04 10:33:00
4:54 AM,21.2,15.8,80,30.02,10.0,West,13.8,19.6,N/A,,Clear,270,2012-12-04 10:54:00
5:13 AM,21.2,15.8,80,30.03,10.0,West,15.0,-,N/A,,Clear,280,2012-12-04 11:13:00
5:33 AM,21.2,15.8,80,30.03,10.0,WNW,17.3,20.7,N/A,,Clear,290,2012-12-04 11:33:00
5:54 AM,21.2,15.8,80,30.04,10.0,WNW,17.3,-,N/A,,Clear,290,2012-12-04 11:54:00
6:13 AM,19.4,15.8,86,30.06,10.0,WNW,15.0,-,N/A,,Clear,290,2012-12-04 12:13:00
6:33 AM,19.4,15.8,86,30.07,10.0,West,12.7,-,N/A,,Clear,280,2012-12-04 12:33:00
6:54 AM,19.4,14.0,80,30.08,10.0,WNW,13.8,-,N/A,,Clear,290,2012-12-04 12:54:00
7:13 AM,17.6,14.0,86,30.09,10.0,WNW,15.0,-,N/A,,Clear,290,2012-12-04 13:13:00
7:54 AM,17.6,12.2,79,30.12,10.0,WNW,12.7,17.3,N/A,,Clear,290,2012-12-04 13:54:00
8:13 AM,17.6,12.2,79,30.13,10.0,WNW,16.1,-,N/A,,Clear,290,2012-12-04 14:13:00
8:34 AM,17.6,12.2,79,30.14,10.0,WNW,16.1,-,N/A,,Clear,290,2012-12-04 14:34:00
8:54 AM,19.4,12.2,74,30.15,10.0,WNW,16.1,-,N/A,,Clear,290,2012-12-04 14:54:00
9:13 AM,19.4,12.2,74,30.17,10.0,WNW,15.0,-,N/A,,Clear,300,2012-12-04 15:13:00
9:34 AM,19.4,12.2,74,30.17,10.0,WNW,15.0,19.6,N/A,,Clear,290,2012-12-04 15:34:00
9:54 AM,21.2,12.2,68,30.18,10.0,NW,13.8,-,N/A,,Clear,310,2012-12-04 15:54:00
10:13 AM,21.2,12.2,68,30.19,10.0,WNW,15.0,-,N/A,,Clear,300,2012-12-04 16:13:00
10:34 AM,21.2,12.2,68,30.21,10.0,WNW,15.0,-,N/A,,Clear,300,2012-12-04 16:34:00
10:54 AM,23.0,12.2,63,30.21,10.0,WNW,16.1,-,N/A,,Clear,290,2012-12-04 16:54:00
11:13 AM,23.0,12.2,63,30.21,10.0,NW,13.8,20.7,N/A,,Clear,320,2012-12-04 17:13:00
11:34 AM,23.0,12.2,63,30.22,10.0,NW,13.8,18.4,N/A,,Clear,320,2012-12-04 17:34:00
11:53 AM,24.8,12.2,59,30.22,10.0,NW,12.7,-,N/A,,Clear,310,2012-12-04 17:53:00
12:13 PM,24.8,12.2,59,30.22,10.0,NW,12.7,17.3,N/A,,Clear,310,2012-12-04 18:13:00
12:34 PM,24.8,12.2,59,30.22,10.0,NW,15.0,-,N/A,,Clear,310,2012-12-04 18:34:00
12:53 PM,24.8,12.2,59,30.23,10.0,WNW,11.5,18.4,N/A,,Clear,300,2012-12-04 18:53:00
1:13 PM,24.8,10.4,54,30.23,10.0,NW,12.7,18.4,N/A,,Clear,310,2012-12-04 19:13:00
1:34 PM,24.8,10.4,54,30.23,10.0,NW,11.5,17.3,N/A,,Clear,310,2012-12-04 19:34:00
1:53 PM,24.8,10.4,54,30.23,10.0,WNW,12.7,-,N/A,,Clear,290,2012-12-04 19:53:00
2:13 PM,26.6,10.4,51,30.24,10.0,NW,11.5,18.4,N/A,,Clear,310,2012-12-04 20:13:00
2:34 PM,26.6,10.4,51,30.24,10.0,WNW,9.2,17.3,N/A,,Clear,300,2012-12-04 20:34:00
2:53 PM,26.6,10.4,51,30.25,10.0,WNW,8.1,-,N/A,,Clear,300,2012-12-04 20:53:00
3:14 PM,24.8,10.4,54,30.26,10.0,WNW,10.4,-,N/A,,Clear,290,2012-12-04 21:14:00
3:34 PM,24.8,10.4,54,30.27,10.0,NW,9.2,-,N/A,,Clear,310,2012-12-04 21:34:00
3:53 PM,24.8,10.4,54,30.27,10.0,NW,9.2,-,N/A,,Clear,310,2012-12-04 21:53:00
4:14 PM,23.0,12.2,63,30.27,10.0,NW,8.1,-,N/A,,Clear,320,2012-12-04 22:14:00
4:53 PM,21.2,12.2,68,30.28,10.0,NW,5.8,-,N/A,,Clear,320,2012-12-04 22:53:00
5:13 PM,19.4,12.2,74,30.29,10.0,West,3.5,-,N/A,,Clear,280,2012-12-04 23:13:00
5:33 PM,17.6,12.2,79,30.29,10.0,WNW,4.6,-,N/A,,Clear,290,2012-12-04 23:33:00
5:53 PM,17.6,10.4,73,30.29,10.0,WNW,5.8,-,N/A,,Clear,300,2012-12-04 23:53:00
6:14 PM,17.6,10.4,73,30.29,10.0,Calm,Calm,-,N/A,,Clear,0,2012-12-05 00:14:00
6:33 PM,15.8,10.4,79,30.29,10.0,NW,3.5,-,N/A,,Clear,310,2012-12-05 00:33:00
6:53 PM,17.6,12.2,79,30.30,10.0,Calm,Calm,-,N/A,,Clear,0,2012-12-05 00:53:00
7:14 PM,17.6,12.2,79,30.30,10.0,Calm,Calm,-,N/A,,Clear,0,2012-12-05 01:14:00
7:33 PM,17.6,12.2,79,30.31,10.0,North,3.5,-,N/A,,Clear,10,2012-12-05 01:33:00
7:53 PM,17.6,10.4,73,30.32,10.0,North,3.5,-,N/A,,Clear,360,2012-12-05 01:53:00
8:14 PM,17.6,10.4,73,30.32,10.0,NNE,5.8,-,N/A,,Clear,20,2012-12-05 02:14:00
8:33 PM,15.8,10.4,79,30.33,10.0,North,4.6,-,N/A,,Clear,10,2012-12-05 02:33:00
8:53 PM,15.8,10.4,79,30.33,10.0,NE,4.6,-,N/A,,Clear,40,2012-12-05 02:53:00
9:14 PM,15.8,10.4,79,30.34,10.0,NE,3.5,-,N/A,,Clear,40,2012-12-05 03:14:00
9:33 PM,15.8,10.4,79,30.35,10.0,North,3.5,-,N/A,,Clear,350,2012-12-05 03:33:00
9:53 PM,15.8,10.4,79,30.36,10.0,Calm,Calm,-,N/A,,Clear,0,2012-12-05 03:53:00
10:14 PM,15.8,10.4,79,30.36,10.0,North,3.5,-,N/A,,Clear,10,2012-12-05 04:14:00
10:33 PM,15.8,10.4,79,30.36,10.0,NNE,4.6,-,N/A,,Clear,30,2012-12-05 04:33:00
10:53 PM,15.8,10.4,79,30.35,10.0,NNE,6.9,-,N/A,,Clear,30,2012-12-05 04:53:00
11:14 PM,15.8,10.4,79,30.34,10.0,NE,5.8,-,N/A,,Clear,40,2012-12-05 05:14:00
11:33 PM,14.0,10.4,86,30.35,10.0,NE,5.8,-,N/A,,Clear,40,2012-12-05 05:33:00
11:53 PM,14.0,10.4,86,30.35,10.0,NE,4.6,-,N/A,,Clear,50,2012-12-05 05:53:00